Weather History for Del Rio, TX

Change the Weather History Date:

Tuesday, May 20, 2014

  Actual Average Record
Temperature  
Mean Temperature 80 °F 80 °F  
Max Temperature 92 °F 91 °F 105 °F (1973)
Min Temperature 68 °F 69 °F 53 °F (1952)
Degree Days  
Heating Degree Days 0 0  
Month to date heating degree days 4 0  
Since 1 July heating degree days 1559 1375  
Cooling Degree Days 15 15  
Month to date cooling degree days 244 254  
Year to date cooling degree days 664 583  
Growing Degree Days 30 (Base 50)    
Moisture  
Dew Point 60 °F    
Average Humidity 55    
Maximum Humidity 78    
Minimum Humidity 32    
Precipitation  
Precipitation 0.00 in 0.09 in 2.59 in (1914)
Month to date precipitation 0.10 1.69  
Year to date precipitation 0.72 6.08  
Sea Level Pressure  
Sea Level Pressure 29.91 in    
Wind  
Wind Speed 15 mph (ESE)    
Max Wind Speed 24 mph    
Max Gust Speed 32 mph    
Visibility 10 miles    
Events      
T = Trace of Precipitation, MM = Missing Value Source: NWS Daily Summary

Daily Weather History Graph

Daily Weather History Graph

Search for Another Location

Airport:

Trip Planner

Search our weather history database for the weather conditions in past years. The results will help you decide how hot, cold, wet, or windy it might be!

Date:

Astronomy

May. 20, 2014 Rise Set
Actual Time 6:48 AM CDT 8:32 PM CDT
Civil Twilight 6:22 AM CDT 8:58 PM CDT
Nautical Twilight 5:50 AM CDT 9:29 PM CDT
Astronomical Twilight 5:17 AM CDT 10:03 PM CDT
Moon 1:13 AM CDT (5/20) 12:45 PM CDT (5/20)
Length of Visible Light 14h 35m
Length of Day
13h 43m
Waning Gibbous, 60% of the Moon is Illuminated
May 20
Waning Gibbous
May 21
Last Quarter
May 28
New
Jun 5
First Quarter
Jun 12
Full

Hourly Weather History & Observations

Time (CDT) Temp. Heat Index Dew Point Humidity Pressure Visibility Wind Dir Wind Speed Gust Speed Precip Events Conditions
12:53 AM 77.0 °F - 59.0 °F 54% 29.89 in 10.0 mi ESE 12.7 mph 24.2 mph N/A   Clear
1:53 AM 73.9 °F - 57.9 °F 57% 29.89 in 10.0 mi ESE 15.0 mph 23.0 mph N/A   Clear
2:53 AM 71.1 °F - 57.9 °F 63% 29.89 in 10.0 mi ESE 16.1 mph 23.0 mph N/A   Clear
3:53 AM 69.8 °F - 57.2 °F 64% 29.94 in 10.0 mi ESE 12.7 mph 21.9 mph N/A   Clear
4:53 AM 68.0 °F - 57.0 °F 68% 29.89 in 10.0 mi ESE 13.8 mph 21.9 mph N/A   Clear
5:21 AM 68.0 °F - 57.9 °F 70% 29.94 in 10.0 mi ESE 12.7 mph - N/A   Mostly Cloudy
5:53 AM 68.0 °F - 59.0 °F 73% 29.90 in 10.0 mi ESE 12.7 mph - N/A   Overcast
6:53 AM 68.0 °F - 61.0 °F 78% 29.92 in 10.0 mi SE 17.3 mph 23.0 mph N/A   Overcast
7:53 AM 68.0 °F - 61.0 °F 78% 29.95 in 10.0 mi ESE 11.5 mph - N/A   Overcast
8:53 AM 69.1 °F - 62.1 °F 78% 29.97 in 10.0 mi ESE 11.5 mph - N/A   Overcast
9:53 AM 70.0 °F - 62.1 °F 76% 29.98 in 10.0 mi ESE 10.4 mph - N/A   Overcast
10:53 AM 71.1 °F - 63.0 °F 75% 29.99 in 10.0 mi ESE 10.4 mph - N/A   Overcast
11:53 AM 73.9 °F - 64.0 °F 71% 29.98 in 9.0 mi SE 10.4 mph - N/A   Overcast
12:53 PM 80.1 °F 81.5 °F 63.0 °F 56% 29.95 in 10.0 mi SSE 18.4 mph 25.3 mph N/A   Mostly Cloudy
1:08 PM 80.1 °F 81.5 °F 63.0 °F 56% 29.99 in 10.0 mi SE 20.7 mph 32.2 mph N/A   Scattered Clouds
1:53 PM 82.9 °F 84.0 °F 63.0 °F 51% 29.93 in 10.0 mi ESE 17.3 mph 25.3 mph N/A   Clear
2:53 PM 88.0 °F 87.9 °F 61.0 °F 40% 29.90 in 10.0 mi SE 15.0 mph 27.6 mph N/A   Clear
3:53 PM 89.6 °F 89.5 °F 60.8 °F 38% 29.93 in 10.0 mi ESE 19.6 mph 25.3 mph N/A   Clear
4:53 PM 90.0 °F 89.7 °F 60.1 °F 37% 29.86 in 10.0 mi ESE 19.6 mph 31.1 mph N/A   Clear
5:53 PM 91.0 °F 90.0 °F 57.9 °F 33% 29.84 in 10.0 mi SE 21.9 mph 31.1 mph N/A   Clear
6:53 PM 90.0 °F 88.8 °F 57.9 °F 34% 29.83 in 10.0 mi ESE 15.0 mph 26.5 mph N/A   Clear
7:53 PM 89.1 °F 87.7 °F 57.0 °F 34% 29.83 in 10.0 mi SE 17.3 mph 27.6 mph N/A   Clear
8:53 PM 87.1 °F 86.1 °F 57.9 °F 37% 29.84 in 10.0 mi ESE 15.0 mph 23.0 mph N/A   Clear
9:53 PM 84.9 °F 84.2 °F 57.9 °F 40% 29.86 in 10.0 mi ESE 9.2 mph - N/A   Clear
10:53 PM 84.0 °F 83.5 °F 57.9 °F 41% 29.88 in 10.0 mi SE 13.8 mph - N/A   Clear
11:53 PM 82.0 °F 82.0 °F 57.9 °F 44% 29.90 in 10.0 mi ESE 15.0 mph - N/A   Clear